ICT,Max TemperatureF,Mean TemperatureF,Min TemperatureF,Max Dew PointF,MeanDew PointF,Min DewpointF,Max Humidity, Mean Humidity, Min Humidity, Max Sea Level PressureIn, Mean Sea Level PressureIn, Min Sea Level PressureIn, Max VisibilityMiles, Mean VisibilityMiles, Min VisibilityMiles, Max Wind SpeedMPH, Mean Wind SpeedMPH, Max Gust SpeedMPH,PrecipitationIn, CloudCover, Events, WindDirDegrees
2013-11-1,90,80,70,73,71,70,93,65,46,29.95,29.89,29.83,6,4,0,6,2,,0.00,3,Fog,146
2013-11-2,90,80,69,72,69,66,94,67,42,29.92,29.86,29.77,7,5,0,6,2,,0.00,1,Fog,122
2013-11-3,90,78,68,72,68,66,94,64,40,29.95,29.90,29.82,5,4,0,7,2,,0.00,2,Fog,150
2013-11-4,87,76,67,68,62,50,90,57,32,30.00,29.95,29.89,3,2,0,8,2,,0.00,1,Fog,104
2013-11-5,87,82,63,68,65,62,94,66,31,30.04,29.96,29.83,4,3,1,8,2,,0.00,2,,329
2013-11-6,88,76,66,72,66,64,94,71,42,29.99,29.93,29.83,6,3,1,7,3,,0.00,3,,345
2013-11-7,87,78,69,71,68,64,88,62,39,29.95,29.90,29.83,6,5,2,7,3,,0.00,6,,21
2013-11-8,86,79,72,72,70,68,89,68,55,29.92,29.86,29.77,6,4,3,6,2,,0.00,3,,316
2013-11-9,89,80,71,72,69,67,91,68,41,29.88,29.83,29.80,5,4,2,7,2,,0.00,3,,230
2013-11-10,88,77,67,70,67,66,91,68,43,29.83,29.75,29.65,6,4,1,9,2,,0.00,6,,317
2013-11-11,94,81,69,73,68,64,91,59,33,29.77,29.71,29.65,11,7,3,4,1,,0.00,1,,188
2013-11-12,92,81,70,75,71,68,87,60,37,29.83,29.76,29.71,11,7,5,5,2,,0.00,1,,97
2013-11-13,91,82,72,74,72,70,90,72,48,29.87,29.79,29.71,6,4,2,7,2,,0.00,6,,115
2013-11-14,87,80,73,74,71,68,94,71,46,29.92,29.85,29.77,11,6,3,7,2,,0.00,4,Rain,106
2013-11-15,86,76,67,69,65,64,94,64,39,29.97,29.91,29.84,11,7,4,12,3,,0.00,3,,151
2013-11-16,79,72,66,72,68,66,89,77,60,30.01,29.94,29.89,6,5,3,4,1,,0.00,8,,336
2013-11-17,87,78,69,72,68,66,94,74,43,30.01,29.94,29.86,11,6,0,5,1,,0.00,4,Fog,165
2013-11-18,84,78,71,72,68,64,84,67,46,29.99,29.93,29.86,7,6,6,6,2,,0.00,8,,124
2013-11-19,85,78,71,69,65,63,88,61,41,30.04,29.94,29.83,11,7,6,7,3,,0.00,4,,143
2013-11-20,83,76,69,67,63,61,84,63,42,29.99,29.92,29.83,11,8,6,6,2,,0.00,4,,55
2013-11-21,82,74,67,69,66,64,94,77,48,29.96,29.90,29.83,7,4,3,5,1,,0.00,8,,-1
2013-11-22,86,78,69,69,67,66,94,72,44,29.96,29.90,29.80,9,7,6,4,1,,0.00,3,,105
2013-11-23,89,78,67,71,67,66,94,67,37,29.94,29.87,29.77,11,8,6,6,2,,0.00,1,,115
2013-11-24,90,78,66,73,69,66,94,72,38,29.94,29.85,29.74,9,6,3,7,2,,0.00,1,,276
2013-11-25,89,80,72,72,70,68,94,74,42,29.94,29.84,29.74,11,8,6,4,1,,0.00,6,,-1
2013-11-26,88,80,72,77,69,64,94,68,43,29.90,29.82,29.71,9,7,6,7,2,,0.00,2,,128
2013-11-27,89,79,69,72,69,66,94,71,42,29.94,29.87,29.80,7,6,6,6,1,,0.00,5,,25
2013-11-28,86,78,69,71,68,62,91,64,49,30.05,29.96,29.86,9,7,6,6,2,,0.00,3,,110
2013-11-29,81,72,63,60,59,56,81,54,36,30.12,30.03,29.91,9,8,7,7,5,,0.00,,,-1
2013-11-30,82,70,59,63,59,57,94,71,35,30.07,30.01,29.87,6,4,2,5,1,,0.00,,,-1